Погода в Самофаловке

Россия / Волгоградская область     48°56′52″N   44°12′56″E
темп.,
°C
ветер,
м/с
пор.,
м/с
влажн.,
%
обл.,
%
осадки,
мм/ч
давл.,
гПа
погр.,
м
10 апреля, сб
сб1000:00+3с71392100 0.1 1019477
03:00+4с7129198 0.1 1018398
06:00+3с81392100 0.0 1017426
09:00+6с81186100 0.0 1017485
12:00+10с787499 0.0 1017734
15:00+12с6769100 0.0 1017840
18:00+11ссз577771 0.0 1018582
21:00+7ссз4793100 0.0 1019191
11 апреля, вс
вс1100:00+6ссз479597 0.0 1020217
03:00+6с479599 0.0 1020207
06:00+5с3596100 0.0 1021142
09:00+11всв347796 0.0 1021383
12:00+16вюв4560100 0.0 1021722
15:00+18в565789 0.0 1021876
18:00+18всв346474 0.0 102156
21:00+15в51371100 0.0 1021211
12 апреля, пн
пн1200:00+13в51260100 0.0 1022205
03:00+11в61358100 0.0 1022204
06:00+11в7145688 0.0 1023244
09:00+16в8134953 0.0 1024448
12:00+20вюв9113746 0.0 10241236
15:00+21вюв81133100 0.0 10231759
18:00+18в6124198 0.0 1023341
21:00+15вюв51152100 0.0 1025207
13 апреля, вт
вт1300:00+12в4858100 0.0 1025140
03:00+11в51158100 0.0 1025178
06:00+10в61353100 0.0 1024247
09:00+14вюв7134391 0.0 1024496
12:00+21вюв811315 0.0 10241201
15:00+22вюв911260 0.0 10232278
18:00+19вюв6113312 0.0 1023296
21:00+14вюв5124259 0.0 1023210
14 апреля, ср
ср1400:00+12вюв473915 0.0 102394
03:00+11в454512 0.0 102261
06:00+9вюв3652100 0.0 102389
09:00+16в5734100 0.0 1022319
12:00+20в673047 0.0 1021985
15:00+22вюв67226 0.0 10192316
18:00+19в4735100 0.0 1019162
21:00+15в494697 0.0 1018133